This is the latest recevied weather packets stored in our database for station/object CQ0XVC-11. If no packets are shown the sender has not sent any weather packets the latest 10 day(s).
| Time | Temp. | Humidity | Pressure | Rain* | Wind** | Luminosity | Snow |
|---|---|---|---|---|---|---|---|
| 1777071204 | 12.22° C | 71% | 1005.9 hPa | 0 mm | - | - | - |
| 1777071169 | 12.22° C | 71% | 1005.9 hPa | 0 mm | - | - | - |
| 1777070867 | 12.22° C | 71% | 1006.1 hPa | 0 mm | - | - | - |
| 1777070565 | 12.22° C | 70% | 1005.8 hPa | 0 mm | - | - | - |
| 1777069961 | 12.78° C | 70% | 1005.8 hPa | 0 mm | - | - | - |
| 1777069658 | 12.78° C | 70% | 1005.9 hPa | 0 mm | - | - | - |
| 1777069356 | 12.22° C | 70% | 1005.9 hPa | 0 mm | - | - | - |
| 1777069054 | 12.22° C | 68% | 1005.8 hPa | 0 mm | - | - | - |
| 1777068752 | 12.22° C | 68% | 1005.9 hPa | 0 mm | - | - | - |
| 1777068501 | 12.78° C | 67% | 1005.8 hPa | 0 mm | - | - | - |
| 1777068449 | 12.78° C | 67% | 1005.8 hPa | 0 mm | - | - | - |
| 1777068180 | 12.78° C | 68% | 1005.8 hPa | 0 mm | - | - | - |
| 1777068148 | 12.78° C | 68% | 1005.8 hPa | 0 mm | - | - | - |
| 1777067845 | 12.78° C | 66% | 1005.8 hPa | 0 mm | - | - | - |
| 1777067543 | 12.78° C | 65% | 1005.7 hPa | 0 mm | - | - | - |
| 1777067241 | 12.78° C | 63% | 1005.8 hPa | 0 mm | - | - | - |
| 1777066939 | 12.78° C | 60% | 1005.9 hPa | 0 mm | - | - | - |
| 1777066636 | 12.78° C | 62% | 1005.7 hPa | 0 mm | - | - | - |
| 1777066414 | 12.78° C | 62% | 1005.7 hPa | 0 mm | - | - | - |
| 1777066335 | 12.78° C | 62% | 1005.7 hPa | 0 mm | - | - | - |
| 1777066032 | 12.78° C | 60% | 1005.7 hPa | 0 mm | - | - | - |
| 1777065787 | 12.78° C | 61% | 1005.6 hPa | 0 mm | - | - | - |
| 1777065730 | 12.78° C | 61% | 1005.6 hPa | 0 mm | - | - | - |
| 1777065470 | 12.78° C | 61% | 1005.5 hPa | 0 mm | - | - | - |
| 1777065428 | 12.78° C | 61% | 1005.5 hPa | 0 mm | - | - | - |
* Rain since midnight (hover to see other rain measurements)
** Current wind speed in m/s (hover to see current wind gust speed)